Warner Robins, GA

2:17 PM EDT on May 23, 2017 (GMT -0400)
Robins Air Force Base

Weather History for KWRB - December, 2012

Change the Weather History Date:

Friday, December 7, 2012

  Actual Average Record
Temperature  
Mean Temperature 58 °F -  
Max Temperature 67 °F 60 °F 80 °F (2001)
Min Temperature 49 °F 38 °F 26 °F (1997)
Degree Days  
Heating Degree Days 6    
Growing Degree Days 8 (Base 50)    
Moisture  
Dew Point 48 °F    
Average Humidity 74    
Maximum Humidity 94    
Minimum Humidity 53    
Precipitation  
Precipitation 0.00 in - - ()
Sea Level Pressure  
Sea Level Pressure 30.06 in    
Wind  
Wind Speed 2 mph (NE)    
Max Wind Speed 7 mph    
Max Gust Speed -    
Visibility 10 miles    
Events      
Averages and records for this station are not official NWS values.
T = Trace of Precipitation, MM = Missing Value Source: NWS Daily Summary

Daily Weather History Graph

Daily Weather History Graph

Search for Another Location

Airport or City:

Trip Planner

Search our weather history database for the weather conditions in past years. The results will help you decide how hot, cold, wet, or windy it might be!

Date:

Astronomy

Dec. 07, 2012 Rise Set
Actual Time 7:23 AM EST 5:28 PM EST
Civil Twilight 6:56 AM EST 5:55 PM EST
Nautical Twilight 6:26 AM EST 6:26 PM EST
Astronomical Twilight 5:56 AM EST 6:56 PM EST
Moon 1:00 AM EST (12/7) 1:08 PM EST (12/7)
Length of Visible Light 10h 58m
Length of Day
10h 04m
Last Quarter, 39% of the Moon is Illuminated
Dec 7
Last Quarter
Dec 13
New
Dec 20
First Quarter
Dec 28
Full
Jan 4
Last Quarter

Hourly Weather History & Observations

Time (EST) Temp. Dew Point Humidity Pressure Visibility Wind Dir Wind Speed Gust Speed Precip Events Conditions
12:55 AM 54.7 °F 51.3 °F 88% 30.11 in 10.0 mi Calm Calm - N/A   Overcast
1:46 AM 53.6 °F 48.2 °F 82% 30.11 in 10.0 mi North 3.5 mph - N/A   Overcast
1:55 AM 54.0 °F 48.9 °F 83% 30.11 in 10.0 mi North 3.5 mph - N/A   Overcast
2:55 AM 53.6 °F 47.8 °F 81% 30.10 in 10.0 mi Calm Calm - N/A   Overcast
3:23 AM 53.6 °F 46.4 °F 77% 30.09 in 10.0 mi ENE 3.5 mph - N/A   Overcast
3:55 AM 53.1 °F 46.2 °F 78% 30.09 in 10.0 mi NE 5.8 mph - N/A   Overcast
4:55 AM 52.3 °F 44.8 °F 75% 30.09 in 10.0 mi NE 3.5 mph - N/A   Overcast
5:55 AM 51.4 °F 44.1 °F 76% 30.09 in 10.0 mi North 3.5 mph - N/A   Overcast
6:55 AM 50.7 °F 43.2 °F 75% 30.12 in 10.0 mi NNE 5.8 mph - N/A   Overcast
7:55 AM 50.2 °F 43.3 °F 77% 30.11 in 10.0 mi NNE 3.5 mph - N/A   Overcast
8:55 AM 51.1 °F 43.5 °F 75% 30.12 in 10.0 mi NNE 4.6 mph - N/A   Overcast
9:55 AM 52.2 °F 44.6 °F 75% 30.12 in 10.0 mi NNE 6.9 mph - N/A   Overcast
10:44 AM 55.4 °F 44.6 °F 67% 30.12 in 10.0 mi Variable 5.8 mph - N/A   Scattered Clouds
10:55 AM 55.4 °F 45.3 °F 69% 30.11 in 10.0 mi Calm Calm - N/A   Scattered Clouds
11:55 AM 58.6 °F 46.0 °F 63% 30.09 in 10.0 mi Variable 5.8 mph - N/A   Clear
12:55 PM 62.1 °F 47.5 °F 59% 30.05 in 10.0 mi Calm Calm - N/A   Clear
1:55 PM 65.5 °F 48.4 °F 54% 30.01 in 6.0 mi Calm Calm - N/A   Haze
2:55 PM 67.1 °F 49.3 °F 53% 29.99 in 10.0 mi ESE 3.5 mph - N/A   Clear
3:55 PM 67.6 °F 49.8 °F 53% 29.99 in 10.0 mi Calm Calm - N/A   Clear
4:55 PM 66.9 °F 50.7 °F 56% 29.99 in 9.0 mi Calm Calm - N/A   Clear
5:55 PM 61.0 °F 50.9 °F 69% 30.00 in 10.0 mi Calm Calm - N/A   Clear
6:55 PM 57.2 °F 51.3 °F 81% 30.00 in 10.0 mi Calm Calm - N/A   Scattered Clouds
7:55 PM 56.1 °F 50.7 °F 82% 30.02 in 8.0 mi Calm Calm - N/A   Clear
8:55 PM 53.8 °F 49.5 °F 85% 30.02 in 10.0 mi Calm Calm - N/A   Clear
9:55 PM 52.7 °F 50.2 °F 91% 30.03 in 10.0 mi Calm Calm - N/A   Clear
10:55 PM 50.5 °F 48.2 °F 92% 30.03 in 10.0 mi Calm Calm - N/A   Clear
11:55 PM 49.6 °F 48.0 °F 94% 30.04 in 10.0 mi Calm Calm - N/A   Clear